Temperature
21 20 20 21 26 28 27 26 27 26 26 24 24 25 24 24 24 22 20 19 19 19 18 18 18 18 18 18 18 18 18 18 18 18 18 18 18 18 18 18 18 18 18 18 18 18 18 18 18
20 20 21 25 29 28 26 27 26 26 25 24 24 24 24 23 21 20 19 19 19 19 19 18 19 18 18 18 18 18 18 18 18 18 18 18 18 18 18 18 18 18 18 18 18 18 18 18 18
20 21 24 29 29 28 27 27 26 26 25 25 24 24 23 22 21 20 19 19 19 19 18 18 19 19 18 18 18 18 18 18 18 18 18 18 18 18 18 18 18 18 18 18 18 18 18 18 18
21 23 27 29 28 28 27 27 27 26 25 25 24 24 22 20 20 20 19 19 19 19 19 18 19 19 18 18 18 18 18 18 18 18 18 18 18 18 18 18 18 18 18 18 18 18 18 18 18
23 27 30 29 28 28 28 27 27 27 26 25 25 24 22 20 20 20 19 19 19 19 19 18 19 19 18 18 18 18 18 18 18 18 18 18 18 18 18 18 18 18 18 18 18 18 18 18 18
27 30 30 29 28 28 28 27 27 26 25 25 25 24 21 20 20 20 19 19 19 19 19 18 19 19 18 18 18 18 18 18 18 18 18 18 18 18 18 18 18 18 18 18 18 18 18 18 18
29 31 30 29 29 28 28 27 27 27 26 25 25 24 22 20 19 19 19 19 19 19 19 19 18 18 18 19 18 18 18 18 18 18 18 18 18 18 18 18 18 18 18 18 18 18 17 17 18
28 31 31 30 29 28 28 27 26 26 26 24 24 24 22 20 19 19 19 19 18 18 19 18 19 18 18 18 19 18 18 18 18 18 18 18 18 18 18 18 18 18 18 18 18 18 18 18 18
28 31 31 30 29 29 28 27 26 26 25 24 24 23 22 20 20 20 20 19 19 18 18 18 18 18 18 18 18 18 18 18 18 18 18 18 17 17 17 18 18 18 18 18 18 17 17 18 18
30 31 31 31 31 30 28 28 27 26 26 24 23 22 21 20 20 20 20 20 19 19 18 18 18 18 18 18 18 18 18 18 18 18 17 18 18 17 18 18 18 18 18 18 18 18 18 17 17
31 31 31 30 30 29 28 28 27 27 27 25 24 22 21 21 21 21 21 20 20 19 19 18 18 18 18 18 18 18 18 18 18 17 17 18 18 18 17 17 17 17 17 17 17 17 17 17 17
31 31 30 30 29 29 29 28 28 27 26 25 24 22 21 21 21 21 21 20 20 19 19 18 18 18 18 18 18 18 18 18 18 18 18 17 18 18 17 17 17 17 17 17 17 17 17 17 17
31 31 30 30 29 29 28 28 28 27 25 24 23 22 22 22 21 21 20 20 19 19 19 18 18 18 18 18 18 18 18 18 18 17 17 17 18 17 17 17 17 17 17 17 17 17 17 17 17
31 30 30 30 29 29 29 28 28 26 25 24 23 23 22 22 22 21 20 20 19 19 19 18 18 18 18 18 18 18 18 18 18 17 17 17 17 17 17 17 17 17 17 17 17 17 17 17 17
30 31 30 30 30 29 29 29 28 26 25 24 24 23 23 22 22 21 20 20 20 19 19 18 18 18 18 18 18 18 18 18 18 17 17 18 17 17 17 17 17 17 17 17 17 17 17 17 17
31 31 31 30 30 29 30 29 28 26 26 25 24 24 23 22 22 21 21 20 20 19 19 19 19 19 18 18 18 18 18 18 18 18 18 18 18 18 18 17 18 17 17 17 17 17 17 17 17
32 32 31 30 30 30 30 30 29 26 26 26 25 24 23 22 22 21 21 20 20 19 19 19 19 19 18 18 18 18 18 18 18 18 18 18 18 18 18 18 18 17 17 17 18 17 17 17 17
31 32 31 31 31 31 30 30 29 27 27 26 25 25 24 23 22 22 21 20 20 19 19 19 19 19 19 18 18 18 18 18 18 18 18 18 18 18 18 17 17 18 17 17 17 17 17 17 17
32 32 31 31 31 31 30 30 30 28 27 27 26 25 24 24 23 22 21 20 20 20 19 19 19 19 19 19 19 18 18 18 18 18 18 18 18 18 18 18 18 17 18 18 17 17 17 17 17
32 31 32 31 31 31 31 31 31 29 28 27 27 26 25 24 23 22 21 21 20 20 20 19 19 19 19 19 19 19 18 18 18 18 18 18 18 18 18 18 17 18 17 17 17 17 17 17 17
31 32 32 31 31 31 31 31 30 30 28 27 27 26 26 25 24 23 22 21 21 20 20 20 19 19 19 19 19 18 18 18 18 18 18 18 18 18 18 17 18 17 17 17 17 17 17 17 17
31 32 32 31 31 31 31 31 31 30 29 28 27 27 26 25 24 23 22 21 21 20 20 20 20 19 19 19 19 19 19 19 18 18 18 18 18 18 18 18 17 18 17 17 17 17 17 17 17
32 32 32 31 31 31 31 31 32 30 29 29 29 27 27 26 25 24 23 22 21 21 20 20 20 20 19 19 19 19 19 19 18 18 18 18 18 18 17 18 18 18 17 17 17 17 17 17 17
31 31 31 31 32 30 31 31 31 31 30 30 29 28 27 26 25 24 23 22 22 21 20 20 20 20 19 19 19 19 19 19 18 18 18 18 18 18 18 17 18 17 17 17 17 17 17 17 17
31 31 30 30 30 31 31 31 31 31 31 31 30 28 27 26 25 24 23 22 22 21 21 20 20 20 20 19 19 19 19 19 18 18 18 18 18 18 17 17 18 17 17 17 17 17 17 17 17
31 32 30 30 30 31 30 31 31 31 30 29 29 28 27 26 26 25 24 23 22 22 21 20 20 20 20 19 19 19 19 19 18 18 18 18 18 18 18 17 17 17 17 17 17 17 17 17 17
31 31 33 32 31 31 31 31 31 30 30 29 28 27 27 26 25 25 24 23 22 22 21 21 20 20 20 20 20 19 19 19 18 18 18 18 18 18 17 17 17 17 17 17 17 17 17 17 16
32 32 31 31 29 30 30 31 31 30 30 29 29 28 26 26 25 24 24 23 22 22 21 20 20 20 20 19 19 19 19 19 19 18 18 18 18 18 17 17 17 17 17 17 17 16 16 16 16
30 30 31 31 31 30 30 31 32 30 30 29 29 27 26 26 25 24 23 23 22 22 21 20 20 20 19 19 19 19 19 19 19 18 18 18 18 17 17 17 17 17 17 16 17 16 16 16 16
31 31 31 30 29 30 31 31 30 30 30 29 28 26 25 25 25 24 23 23 22 22 21 20 20 20 19 19 19 19 19 18 18 18 18 18 18 17 17 17 17 17 16 16 16 16 16 16 15
Wind_Speed
13 9 6 4 3 6 11 9 7 7 6 7 7 6 8 9 7 7 5 5 5 6 8 9 8 9 10 11 12 13 13 14 14 15 14 14 14 14 15 15 15 14 14 14 14 15 15 15 15
9 6 5 3 3 10 11 9 9 9 8 7 7 8 9 9 9 7 6 6 5 6 8 9 9 9 10 11 12 12 13 13 13 14 13 13 13 13 13 14 13 13 13 13 13 14 15 15 15
7 5 3 2 10 11 10 9 9 9 7 5 6 7 7 7 7 5 7 6 6 8 8 11 9 10 10 10 11 12 12 12 13 13 13 12 12 12 12 13 12 12 12 12 12 13 14 14 14
4 4 2 6 14 12 9 8 7 7 7 6 6 8 7 7 5 7 8 6 7 8 9 11 9 9 9 10 11 11 12 12 12 12 12 12 12 12 11 11 12 11 11 11 12 13 13 13 13
5 2 4 11 13 11 9 7 5 7 6 6 7 10 9 7 9 9 8 7 7 8 9 12 10 9 10 10 10 10 11 11 11 11 12 12 11 11 11 11 11 11 11 10 11 12 12 12 12
3 1 6 11 12 9 8 7 7 9 9 9 9 10 8 7 8 8 8 7 7 8 9 11 11 10 10 10 10 9 10 10 10 10 11 11 11 11 10 10 10 10 10 10 11 11 11 11 10
2 4 8 10 10 9 7 6 6 8 9 7 6 8 8 8 8 8 8 8 7 7 8 8 10 11 10 9 9 8 9 9 9 10 10 10 10 10 9 10 10 9 9 9 10 10 9 9 9
3 1 8 9 9 10 8 6 6 7 9 7 4 6 9 9 8 8 8 8 7 6 7 7 7 8 8 9 9 8 8 8 8 9 9 9 10 10 9 10 10 9 8 8 8 8 8 8 7
3 2 8 8 8 8 8 8 7 6 9 7 7 9 12 12 10 9 8 8 7 7 6 6 6 6 6 7 8 8 9 8 7 8 8 6 7 8 8 10 9 8 8 8 8 7 7 7 7
1 6 10 7 6 8 8 7 7 7 8 9 10 12 12 11 10 9 8 8 8 7 7 5 5 5 6 5 6 5 6 6 5 5 5 5 5 5 6 10 9 8 8 7 7 6 6 6 6
3 7 7 6 7 8 8 8 6 7 7 8 11 13 12 11 9 8 8 7 7 7 6 6 5 5 4 4 4 4 4 4 5 5 4 4 4 5 5 6 7 7 7 6 6 5 4 3 2
4 6 5 6 7 7 8 8 7 6 8 9 12 13 12 10 9 8 8 7 7 6 6 5 5 4 3 2 3 3 3 3 3 4 3 3 2 2 3 3 4 4 4 4 3 3 3 2 3
5 5 6 7 7 7 8 7 7 7 9 11 13 12 11 9 8 8 7 7 6 6 6 6 4 4 3 2 1 2 2 2 3 3 3 2 2 2 3 3 2 2 4 4 3 3 3 2 3
5 6 7 7 8 7 7 7 6 8 11 13 12 11 10 9 8 8 7 7 6 6 5 5 4 4 3 2 1 1 1 2 2 2 3 2 2 2 2 3 2 2 3 3 2 3 2 2 1
6 7 7 6 6 6 6 6 6 10 12 13 12 10 9 8 8 8 7 7 7 6 5 4 4 4 3 3 2 2 1 2 2 3 3 2 2 2 2 2 2 2 3 3 3 2 2 2 2
6 5 5 6 5 5 5 4 8 12 12 12 11 10 9 8 8 8 7 7 6 6 5 4 4 4 4 2 1 1 1 2 2 3 3 3 2 2 2 2 2 3 3 3 2 2 2 1 1
7 4 2 6 6 5 5 3 8 12 12 11 11 11 10 9 8 8 8 8 7 6 6 6 4 4 4 3 2 2 1 1 2 3 3 3 2 2 2 2 2 3 2 2 2 2 1 1 1
4 3 3 3 6 7 6 3 8 12 12 11 11 11 11 10 10 9 9 8 8 7 6 6 5 4 4 3 3 2 2 2 2 2 2 2 2 2 2 2 2 2 2 2 1 1 1 1 1
4 5 3 2 3 6 6 5 8 12 12 12 12 12 11 11 10 10 10 9 9 8 8 7 6 5 4 3 2 2 2 2 2 2 2 2 2 2 1 1 2 1 2 1 2 2 2 2 1
7 7 4 3 3 5 5 6 7 12 14 13 13 13 13 12 12 11 11 10 10 10 9 8 7 6 5 4 3 2 1 2 2 1 2 1 2 1 1 1 2 2 1 2 1 1 1 1 1
10 9 6 4 4 6 6 7 8 10 12 13 13 13 13 13 13 13 13 12 11 10 9 8 7 6 6 5 4 3 3 2 2 2 2 2 2 1 0 1 1 1 2 1 2 2 2 2 1
10 8 7 6 7 5 6 5 6 10 12 14 14 14 14 14 14 13 14 13 12 11 10 9 8 7 6 6 5 4 3 2 2 2 2 2 2 2 2 1 1 1 1 1 2 1 2 3 2
7 4 7 8 8 7 7 7 3 8 9 12 14 15 15 15 15 15 14 13 12 11 10 9 9 8 7 6 6 5 4 3 3 3 3 2 3 2 2 2 2 1 1 1 1 1 2 2 2
6 5 6 8 9 10 7 8 4 4 7 8 11 13 14 15 15 15 14 13 12 11 11 10 10 9 8 8 7 6 5 4 3 3 3 3 3 3 3 2 2 2 1 1 1 1 2 2 2
11 10 8 9 9 8 4 7 4 1 2 5 8 11 13 14 15 15 15 14 13 12 12 11 10 9 9 8 8 7 6 5 4 4 3 3 2 3 3 2 2 1 1 1 1 2 1 2 2
15 15 12 9 9 7 6 7 3 0 1 3 5 8 11 13 14 15 15 14 13 13 12 12 11 10 10 9 8 7 7 5 4 4 3 3 2 2 2 3 2 2 2 2 1 1 1 1 2
13 15 13 12 12 10 7 6 5 3 3 4 5 7 10 11 13 14 14 14 13 13 13 12 11 10 10 9 8 7 7 5 4 4 4 3 2 2 3 3 3 2 2 1 2 1 1 1 2
11 11 10 12 12 12 10 9 7 5 4 5 6 8 9 10 11 12 12 13 12 12 12 11 11 10 9 9 8 7 7 6 5 5 4 3 3 2 3 3 3 2 2 2 2 1 1 1 1
10 11 11 11 12 12 11 7 3 5 4 5 6 7 8 9 11 11 11 12 12 12 11 11 10 10 9 8 7 7 7 7 6 5 5 4 4 4 4 4 3 3 2 2 1 1 1 2 2
12 13 13 12 11 12 12 6 3 3 3 4 5 6 7 8 9 10 11 11 11 11 11 11 10 9 9 8 8 7 7 6 6 6 5 5 5 5 4 4 3 3 2 2 2 2 2 2 2
Wind_Direction
170 178 207 236 213 81 65 62 64 73 70 64 61 64 64 49 47 81 89 88 84 85 92 99 86 85 84 86 91 96 100 101 101 100 99 100 104 108 110 110 111 112 115 118 121 123 125 127 127
168 185 228 243 57 74 68 64 66 66 89 96 78 75 75 67 66 90 103 97 98 91 93 89 90 90 87 88 90 92 97 99 101 101 102 102 103 106 106 107 108 109 112 117 122 126 128 128 127
175 224 265 49 57 59 67 71 81 88 94 87 85 66 64 74 78 86 98 111 107 95 93 96 98 96 93 92 93 93 96 98 101 103 105 107 106 103 103 105 107 108 111 118 125 129 129 128 128
209 225 226 68 67 62 69 79 92 97 85 78 94 86 77 65 78 99 111 119 106 102 102 102 100 99 94 95 96 98 99 101 102 103 105 105 105 105 105 106 108 108 110 116 123 128 129 129 131
242 257 89 75 69 70 75 79 79 81 82 88 93 97 88 76 95 108 116 112 104 99 100 106 101 101 98 98 99 99 101 103 103 103 104 105 105 105 106 107 108 111 113 115 123 127 130 134 135
250 250 68 72 77 79 80 81 86 87 97 100 103 102 89 106 109 112 111 106 101 100 103 108 113 107 103 99 98 97 100 103 105 106 106 106 105 104 104 105 106 108 113 115 119 125 131 135 139
319 50 70 76 84 86 83 81 81 94 98 95 103 103 111 116 114 118 112 106 100 99 102 106 116 119 118 108 102 101 103 106 109 109 110 112 111 110 108 107 105 104 105 112 118 123 127 131 135
305 69 81 76 77 86 98 95 85 89 95 104 102 107 125 130 130 125 118 111 103 100 102 104 103 105 114 115 113 109 111 113 114 115 116 122 126 122 120 118 107 102 102 105 113 119 121 123 131
255 81 69 69 71 97 116 111 95 99 107 100 86 97 118 132 135 131 124 117 113 108 105 105 105 106 106 107 114 122 127 126 137 132 137 147 127 121 125 103 104 105 105 105 108 120 134 146 148
294 58 65 65 79 108 123 114 120 124 116 111 108 112 124 137 143 138 128 124 120 115 110 109 108 107 108 107 113 116 119 118 111 108 120 122 117 118 118 117 118 116 115 117 118 127 158 185 161
63 60 73 85 93 111 122 122 127 122 119 125 133 136 140 141 144 136 128 125 121 122 118 120 112 109 108 115 117 111 114 114 117 110 116 121 129 133 132 132 140 138 146 137 141 167 162 146 132
88 74 83 99 109 119 119 121 118 103 102 123 134 140 144 149 148 143 134 130 126 124 126 124 121 117 105 92 108 124 121 123 118 119 132 124 121 124 114 126 132 143 137 132 141 142 137 138 148
104 90 92 108 118 121 124 120 112 111 119 130 138 144 149 151 149 144 138 139 138 136 134 128 128 125 124 119 134 115 126 136 126 122 117 126 134 122 120 120 124 133 134 146 150 146 138 153 160
106 115 115 120 121 132 132 127 128 124 138 141 149 154 156 156 153 151 155 155 153 149 144 141 145 142 143 147 144 124 149 162 144 133 123 141 125 122 139 142 141 137 145 140 152 152 156 170 164
138 133 134 136 139 146 154 139 136 144 150 153 159 161 163 164 162 165 169 168 165 162 157 157 163 154 157 163 167 153 175 152 150 140 141 153 139 133 159 142 156 138 136 146 166 153 166 176 182
181 188 162 152 168 174 217 114 142 159 165 165 166 168 174 177 178 172 173 176 172 169 165 174 172 156 163 160 163 115 115 128 143 140 137 143 142 159 185 159 141 146 158 157 158 171 174 159 181
204 207 161 154 185 188 216 124 149 171 176 175 177 178 182 182 187 180 180 180 179 179 176 177 177 168 169 163 157 128 108 108 130 137 137 141 153 163 179 150 130 168 158 159 176 143 162 151 174
209 224 202 184 181 207 218 176 164 180 187 187 186 187 190 191 190 186 184 181 182 182 180 180 179 178 177 168 162 148 122 130 136 129 120 132 145 151 170 155 153 175 150 154 130 131 143 202 217
246 254 238 193 179 214 226 220 188 187 195 195 196 195 197 198 188 185 186 185 183 181 182 187 190 182 184 178 179 166 155 153 130 132 129 143 130 129 178 139 141 185 157 165 172 175 183 203 188
236 242 234 192 187 233 240 240 210 195 203 203 202 201 201 197 189 187 189 188 188 185 187 187 192 191 193 181 177 175 162 159 149 123 119 141 140 148 152 136 179 173 168 181 182 193 242 210 194
235 243 248 241 200 222 253 231 204 197 207 210 211 209 205 201 195 190 192 194 190 187 189 189 189 191 198 189 182 172 171 182 158 158 158 160 164 168 148 176 201 174 211 174 195 210 233 259 244
234 234 242 232 233 231 241 263 189 194 203 210 212 210 207 203 199 194 193 194 192 190 189 189 188 191 192 193 194 188 187 185 183 182 160 160 161 164 162 167 177 199 198 164 218 194 245 252 257
239 224 230 232 242 257 232 263 207 185 209 211 209 209 208 201 198 195 194 192 192 191 189 188 187 189 190 195 195 200 199 198 180 177 157 181 163 173 176 174 174 185 200 176 248 234 265 260 268
192 190 206 228 240 247 242 255 249 205 225 216 204 205 205 200 196 195 192 189 192 191 191 189 186 190 192 197 198 203 200 204 193 188 177 187 175 179 178 184 184 192 185 188 229 234 219 273 272
206 216 221 224 228 241 210 246 263 307 236 226 206 201 201 199 195 192 191 190 191 192 192 190 187 190 193 195 197 198 197 199 202 210 198 213 190 180 173 185 182 189 190 214 235 220 247 252 256
216 228 237 246 248 239 204 241 241 131 202 211 206 194 193 192 192 191 190 190 192 193 193 192 190 191 190 191 193 196 200 205 202 208 221 206 211 196 169 178 185 197 217 227 214 243 236 243 253
216 229 245 254 259 261 237 232 231 209 199 185 180 178 183 187 187 186 186 188 188 190 191 192 189 190 191 191 189 191 197 204 200 195 209 207 205 196 180 186 189 199 211 234 242 248 267 266 261
239 229 234 244 248 252 243 237 237 216 207 179 175 176 178 180 180 181 183 185 185 186 185 186 186 187 189 190 193 188 191 194 197 200 193 195 194 192 188 189 191 198 201 212 241 224 215 258 269
206 220 231 241 250 253 253 241 219 192 199 184 171 167 170 174 176 178 180 181 181 181 180 182 183 184 185 184 185 189 189 188 187 190 193 193 194 186 191 195 197 198 199 202 210 244 233 252 271
225 225 224 234 238 249 261 249 135 166 179 176 161 159 165 168 171 172 172 174 177 180 180 180 183 184 183 180 181 187 188 188 192 190 192 194 192 193 190 197 201 208 205 207 217 242 244 251 261
Height
1494 1495 1495 1497 1490 1488 1496 1496 1494 1495 1499 1503 1503 1502 1503 1506 1508 1518 1520 1518 1518 1518 1518 1516 1516 1515 1515 1514 1514 1514 1515 1516 1517 1518 1518 1518 1519 1520 1521 1523 1525 1526 1528 1529 1531 1533 1534 1537 1539
1496 1496 1498 1494 1485 1496 1502 1496 1497 1499 1503 1505 1505 1506 1506 1511 1514 1517 1519 1519 1520 1520 1520 1519 1518 1518 1518 1517 1518 1518 1519 1519 1520 1521 1521 1522 1523 1524 1525 1526 1527 1529 1530 1531 1533 1534 1536 1538 1540
1497 1497 1497 1487 1488 1497 1502 1497 1500 1503 1505 1505 1507 1509 1511 1515 1518 1519 1520 1521 1521 1521 1521 1520 1520 1520 1520 1521 1521 1521 1522 1522 1523 1524 1525 1526 1526 1527 1528 1529 1530 1530 1531 1532 1533 1535 1538 1540 1542
1499 1499 1494 1488 1494 1495 1496 1498 1501 1503 1505 1507 1508 1511 1516 1519 1520 1521 1521 1522 1523 1523 1523 1521 1522 1523 1523 1523 1524 1524 1525 1525 1526 1527 1528 1528 1529 1530 1530 1531 1532 1533 1533 1533 1534 1536 1539 1541 1543
1500 1495 1488 1490 1495 1497 1498 1501 1502 1503 1506 1508 1509 1513 1518 1522 1522 1522 1523 1524 1524 1524 1525 1524 1524 1525 1525 1526 1527 1527 1528 1528 1529 1529 1530 1531 1532 1533 1533 1534 1535 1535 1535 1535 1536 1538 1540 1543 1545
1497 1489 1489 1496 1498 1498 1500 1503 1504 1505 1508 1511 1511 1514 1521 1523 1524 1525 1525 1526 1526 1526 1527 1526 1526 1527 1527 1528 1529 1529 1530 1530 1531 1532 1532 1533 1534 1535 1535 1536 1537 1537 1538 1539 1539 1541 1543 1544 1546
1496 1488 1491 1493 1497 1499 1502 1504 1504 1506 1509 1512 1513 1515 1521 1524 1525 1526 1527 1527 1528 1528 1529 1529 1530 1529 1529 1530 1531 1532 1532 1532 1533 1534 1534 1535 1536 1536 1537 1538 1539 1539 1540 1541 1542 1543 1545 1546 1547
1497 1489 1489 1491 1496 1500 1503 1505 1507 1508 1511 1515 1516 1516 1521 1525 1526 1527 1528 1529 1529 1529 1530 1531 1532 1532 1533 1533 1532 1533 1533 1534 1535 1535 1536 1537 1537 1538 1539 1540 1540 1541 1542 1542 1543 1545 1546 1547 1548
1497 1489 1491 1493 1496 1500 1503 1506 1510 1511 1513 1516 1517 1519 1523 1525 1527 1528 1529 1530 1531 1531 1532 1533 1534 1534 1535 1535 1534 1534 1535 1535 1536 1537 1537 1538 1540 1541 1541 1541 1541 1542 1543 1544 1545 1546 1547 1548 1549
1494 1490 1493 1493 1494 1498 1504 1506 1509 1511 1514 1517 1520 1522 1524 1526 1528 1529 1530 1531 1532 1533 1534 1534 1535 1536 1536 1537 1536 1536 1537 1537 1538 1538 1539 1540 1540 1542 1542 1542 1543 1543 1544 1545 1546 1547 1548 1549 1551
1494 1493 1494 1496 1498 1500 1504 1507 1509 1510 1512 1516 1519 1523 1525 1527 1528 1529 1531 1532 1533 1534 1535 1535 1536 1536 1537 1538 1538 1538 1539 1539 1539 1539 1540 1540 1542 1543 1544 1544 1544 1545 1546 1547 1547 1548 1549 1550 1551
1495 1496 1497 1498 1501 1502 1504 1507 1509 1510 1514 1518 1521 1524 1526 1528 1529 1530 1532 1533 1534 1535 1536 1536 1537 1537 1537 1538 1539 1539 1540 1540 1541 1540 1541 1542 1542 1543 1544 1544 1545 1546 1547 1547 1548 1548 1549 1550 1550
1496 1498 1499 1500 1502 1504 1506 1507 1509 1513 1517 1519 1522 1525 1527 1528 1530 1532 1533 1534 1535 1536 1537 1537 1537 1537 1538 1538 1539 1540 1540 1540 1540 1540 1541 1541 1543 1544 1544 1544 1545 1546 1547 1548 1548 1549 1549 1549 1550
1498 1499 1500 1501 1503 1505 1506 1508 1510 1515 1518 1520 1523 1525 1527 1529 1530 1532 1533 1534 1535 1536 1537 1538 1538 1538 1538 1538 1539 1539 1539 1539 1540 1541 1541 1542 1543 1543 1544 1545 1545 1546 1547 1548 1548 1549 1549 1550 1550
1499 1498 1500 1501 1502 1504 1505 1508 1509 1515 1518 1521 1523 1526 1528 1530 1531 1532 1533 1534 1535 1536 1538 1538 1539 1539 1539 1539 1539 1539 1538 1539 1539 1540 1541 1542 1543 1543 1544 1545 1545 1546 1547 1547 1548 1549 1549 1550 1550
1496 1495 1498 1500 1501 1503 1504 1507 1509 1514 1517 1519 1522 1525 1528 1529 1531 1532 1533 1535 1536 1537 1537 1538 1540 1539 1539 1539 1539 1539 1539 1538 1539 1540 1541 1542 1543 1543 1544 1545 1546 1546 1547 1548 1548 1549 1549 1550 1550
1493 1495 1496 1499 1499 1500 1501 1503 1507 1512 1515 1517 1521 1524 1526 1528 1530 1532 1533 1534 1535 1536 1537 1538 1539 1539 1540 1540 1540 1540 1539 1539 1540 1541 1542 1543 1543 1543 1544 1545 1545 1546 1547 1548 1549 1549 1549 1550 1550
1496 1493 1495 1496 1495 1497 1498 1499 1504 1509 1512 1515 1518 1521 1524 1526 1529 1531 1532 1533 1534 1535 1536 1538 1539 1539 1540 1540 1540 1541 1541 1541 1541 1542 1542 1543 1544 1544 1545 1545 1545 1547 1547 1547 1548 1548 1548 1549 1549
1488 1491 1493 1492 1492 1495 1496 1497 1500 1506 1509 1512 1515 1518 1521 1524 1527 1529 1531 1532 1533 1534 1535 1536 1538 1539 1539 1540 1541 1541 1542 1542 1543 1543 1543 1543 1544 1544 1544 1545 1545 1546 1547 1547 1547 1548 1548 1549 1549
1489 1492 1492 1491 1492 1494 1494 1495 1494 1501 1505 1508 1511 1514 1518 1521 1524 1527 1529 1530 1532 1533 1534 1535 1537 1538 1539 1540 1540 1541 1542 1543 1543 1543 1543 1543 1544 1544 1545 1545 1545 1546 1546 1546 1547 1547 1548 1549 1549
1489 1490 1490 1492 1492 1492 1494 1494 1493 1496 1501 1505 1508 1511 1514 1517 1520 1524 1526 1528 1530 1531 1533 1535 1536 1537 1538 1539 1541 1541 1542 1542 1543 1543 1543 1543 1543 1544 1544 1544 1545 1545 1546 1546 1546 1546 1546 1548 1548
1489 1483 1486 1490 1494 1491 1494 1498 1490 1491 1496 1499 1503 1506 1510 1513 1517 1520 1523 1525 1528 1530 1531 1533 1534 1535 1537 1538 1540 1541 1541 1542 1542 1543 1543 1543 1543 1543 1544 1544 1544 1544 1545 1545 1545 1545 1545 1546 1547
1482 1482 1485 1487 1490 1492 1490 1495 1487 1487 1491 1492 1496 1501 1505 1509 1513 1516 1519 1522 1525 1528 1530 1531 1532 1534 1535 1537 1538 1539 1540 1541 1542 1542 1542 1542 1543 1543 1543 1543 1543 1543 1544 1544 1544 1544 1544 1545 1545
1483 1486 1487 1486 1486 1500 1491 1495 1491 1482 1485 1485 1490 1496 1500 1504 1509 1513 1516 1519 1522 1525 1527 1529 1530 1532 1533 1535 1536 1537 1539 1540 1541 1541 1541 1542 1542 1542 1542 1542 1542 1543 1543 1543 1543 1543 1543 1543 1543
1482 1489 1499 1502 1500 1496 1486 1491 1487 1478 1480 1482 1486 1491 1495 1500 1504 1509 1513 1516 1519 1522 1524 1526 1528 1529 1531 1533 1534 1536 1537 1538 1539 1540 1541 1541 1542 1542 1541 1542 1541 1542 1542 1542 1542 1541 1542 1542 1542
1479 1480 1496 1506 1501 1489 1488 1489 1480 1476 1480 1483 1485 1488 1492 1496 1500 1505 1509 1512 1515 1518 1521 1524 1525 1527 1529 1531 1532 1534 1535 1537 1538 1538 1539 1540 1540 1541 1540 1540 1540 1540 1540 1541 1540 1541 1540 1540 1540
1477 1477 1470 1480 1485 1490 1483 1480 1476 1476 1479 1481 1484 1487 1490 1493 1497 1501 1506 1509 1512 1515 1518 1521 1523 1525 1527 1529 1530 1531 1533 1534 1535 1536 1537 1538 1538 1539 1538 1538 1539 1539 1539 1539 1539 1539 1539 1539 1539
1469 1469 1476 1481 1497 1499 1488 1484 1480 1477 1477 1479 1482 1485 1488 1492 1495 1499 1503 1506 1509 1512 1515 1518 1520 1522 1524 1526 1528 1529 1530 1532 1533 1534 1535 1535 1536 1536 1537 1537 1537 1537 1537 1537 1537 1537 1537 1537 1537
1475 1475 1474 1475 1478 1491 1494 1483 1466 1471 1474 1476 1480 1484 1487 1490 1493 1497 1500 1503 1507 1510 1513 1515 1518 1520 1522 1523 1525 1527 1528 1529 1530 1531 1532 1533 1534 1534 1534 1535 1535 1536 1536 1536 1535 1536 1536 1536 1536
1465 1467 1471 1482 1484 1480 1481 1479 1466 1469 1472 1476 1479 1483 1486 1489 1492 1495 1498 1501 1504 1507 1510 1512 1515 1517 1519 1521 1522 1524 1525 1527 1528 1529 1530 1531 1531 1532 1533 1533 1534 1534 1534 1534 1534 1534 1534 1534 1534